Geneva, Switzerland

9:56 AM CET on December 14, 2017 (GMT +0100)
Cointrin

Weather History for LSGG - November, 2012

Change the Weather History Date:

Saturday, November 24, 2012

  Actual Average Record
Temperature  
Mean Temperature 44 °F -  
Max Temperature 49 °F 41 °F 59 °F (2017)
Min Temperature 38 °F 31 °F 19 °F (1998)
Degree Days  
Heating Degree Days 22    
Moisture  
Dew Point 41 °F    
Average Humidity 90    
Maximum Humidity 100    
Minimum Humidity 70    
Precipitation  
Precipitation 0.00 in 0.11 in - ()
Sea Level Pressure  
Sea Level Pressure 30.11 in    
Wind  
Wind Speed 2 mph ()    
Max Wind Speed 4 mph    
Max Gust Speed -    
Visibility 3.4 miles    
Events Fog    
Averages and records for this station are not official NWS values.
T = Trace of Precipitation, MM = Missing Value Source: Averaged Metar Reports

Daily Weather History Graph

Daily Weather History Graph

Search for Another Location

Airport or City:

Trip Planner

Search our weather history database for the weather conditions in past years. The results will help you decide how hot, cold, wet, or windy it might be!

Date:

Astronomy

Nov. 24, 2012 Rise Set
Actual Time 7:49 AM CET 4:54 PM CET
Civil Twilight 7:15 AM CET 5:28 PM CET
Nautical Twilight 6:38 AM CET 6:05 PM CET
Astronomical Twilight 6:02 AM CET 6:41 PM CET
Moon 2:40 PM CET (11/24) 3:40 AM CET (11/24)
Length of Visible Light 10h 12m
Length of Day
9h 05m
Waxing Gibbous, 85% of the Moon is Illuminated
Nov 24
Waxing Gibbous
Nov 28
Full
Dec 6
Last Quarter
Dec 13
New
Dec 20
First Quarter

Hourly Weather History & Observations

Time (CET) Temp. Windchill Dew Point Humidity Pressure Visibility Wind Dir Wind Speed Gust Speed Precip Events Conditions
12:00 AM 44 °F - 42 °F 90% 30.20 in - NW 2.3 mph - -  
12:20 AM 44.6 °F - 42.8 °F 93% 30.15 in 5.6 mi SW 2.3 mph - N/A   Unknown
12:50 AM 42.8 °F 41.1 °F 41.0 °F 93% 30.15 in 5.6 mi SW 3.5 mph - N/A   Unknown
1:00 AM 41 °F - 40 °F 93% 30.20 in 6 mi SW 3.5 mph - -   Mist
1:20 AM 42.8 °F - 41.0 °F 93% 30.15 in 5.0 mi Variable 2.3 mph - N/A   Unknown
1:50 AM 41.0 °F - 39.2 °F 93% 30.15 in 5.0 mi Calm Calm - N/A   Unknown
2:00 AM 40 °F - 39 °F 93% 30.19 in - NW 2.3 mph - -  
2:50 AM 39.2 °F - 39.2 °F 100% 30.15 in 5.0 mi Calm Calm - N/A   Unknown
3:00 AM 40 °F - 39 °F 94% 30.19 in - West 1.2 mph - -  
3:20 AM 41.0 °F - 39.2 °F 93% 30.12 in 5.0 mi Calm Calm - N/A   Unknown
3:50 AM 41.0 °F - 39.2 °F 93% 30.12 in 5.0 mi Calm Calm - N/A   Unknown
4:20 AM 41.0 °F - 39.2 °F 93% 30.12 in 4.3 mi Variable 1.2 mph - N/A   Unknown
4:50 AM 41.0 °F - 39.2 °F 93% 30.12 in 4.3 mi Calm Calm - N/A   Mostly Cloudy
5:00 AM 41 °F - 39 °F 91% 30.18 in - West 1.2 mph - -  
5:20 AM 39.2 °F - 37.4 °F 93% 30.12 in 4.3 mi Calm Calm - N/A Fog Fog
5:50 AM 39.2 °F - 37.4 °F 93% 30.15 in 3.7 mi Variable 1.2 mph - N/A   Unknown
6:00 AM 40 °F - 38 °F 90% 30.19 in - WSW 2.3 mph - -  
6:20 AM 39.2 °F - 37.4 °F 93% 30.12 in 2.5 mi Calm Calm - N/A   Mostly Cloudy
6:50 AM 39.2 °F - 37.4 °F 93% 30.15 in 2.5 mi Variable 1.2 mph - N/A   Mostly Cloudy
7:00 AM 42 °F - 40 °F 91% 30.19 in 3 mi West 1.2 mph - -   Mist
7:20 AM 41.0 °F - 39.2 °F 93% 30.12 in 2.2 mi WNW 1.2 mph - N/A   Mostly Cloudy
7:50 AM 41.0 °F - 39.2 °F 93% 30.15 in 1.9 mi Variable 2.3 mph - N/A Fog Fog
8:00 AM 41 °F - 40 °F 93% 30.19 in - NW 2.3 mph - -  
8:20 AM 41.0 °F - 39.2 °F 93% 30.12 in 1.6 mi Variable 1.2 mph - N/A Fog Fog
8:50 AM 41.0 °F - 41.0 °F 100% 30.15 in 0.5 mi Variable 2.3 mph - N/A Fog Fog
9:00 AM 44 °F - 42 °F 91% 30.18 in - WSW 2.3 mph - -  
9:20 AM 42.8 °F - 42.8 °F 100% 30.15 in 0.4 mi WSW 2.3 mph - N/A Fog Fog
9:50 AM 44.6 °F 43.1 °F 44.6 °F 100% 30.12 in 0.2 mi Variable 3.5 mph - N/A Fog Fog
10:20 AM 42.8 °F - 42.8 °F 100% 30.12 in 0.2 mi Variable 2.3 mph - N/A Fog Fog
10:50 AM 44.6 °F - 44.6 °F 100% 30.12 in 0.7 mi Variable 1.2 mph - N/A Fog Patches of Fog
11:00 AM 45 °F - 43 °F 90% 30.17 in - WNW 2.3 mph - -  
11:20 AM 46.4 °F - 44.6 °F 93% 30.12 in 1.9 mi Variable 1.2 mph - N/A   Mostly Cloudy
11:50 AM 48.2 °F - 44.6 °F 87% 30.12 in 3.7 mi Calm Calm - N/A   Unknown
12:00 PM 48 °F - 44 °F 79% 30.13 in - NE 1.2 mph - -  
12:20 PM 50.0 °F - 44.6 °F 82% 30.09 in 3.7 mi Variable 1.2 mph - N/A   Mostly Cloudy
12:50 PM 50.0 °F - 42.8 °F 76% 30.09 in 3.7 mi NE 2.3 mph - N/A   Mostly Cloudy
1:00 PM 49 °F - 42 °F 70% 30.12 in 4 mi ENE 3.5 mph - -   Mist
1:20 PM 50.0 °F - 44.6 °F 82% 30.09 in 3.7 mi Variable 3.5 mph - N/A   Mostly Cloudy
1:50 PM 50.0 °F - 42.8 °F 76% 30.09 in 4.3 mi Variable 1.2 mph - N/A   Unknown
2:00 PM 49 °F - 42 °F 71% 30.10 in - ENE 2.3 mph - -  
2:20 PM 50.0 °F - 44.6 °F 82% 30.06 in 4.3 mi Variable 2.3 mph - N/A   Mostly Cloudy
2:50 PM 50.0 °F - 42.8 °F 76% 30.06 in 4.3 mi NNE 1.2 mph - N/A   Mostly Cloudy
3:00 PM 49 °F - 43 °F 72% 30.09 in - NE 3.5 mph - -  
3:20 PM 50.0 °F - 44.6 °F 82% 30.06 in 4.3 mi NE 3.5 mph - N/A   Mostly Cloudy
3:50 PM 50.0 °F - 44.6 °F 82% 30.06 in 4.3 mi East 3.5 mph - N/A   Mostly Cloudy
4:20 PM 48.2 °F - 44.6 °F 87% 30.06 in 4.3 mi ENE 3.5 mph - N/A   Unknown
4:50 PM 46.4 °F - 42.8 °F 87% 30.04 in 3.1 mi NNE 2.3 mph - N/A   Mist
5:00 PM 46 °F - 43 °F 84% 30.06 in - 1.2 mph - -  
5:20 PM 44.6 °F - 42.8 °F 93% 30.04 in 3.7 mi East 2.3 mph - N/A   Unknown
5:50 PM 44.6 °F - 42.8 °F 93% 30.04 in 3.7 mi Calm Calm - N/A   Unknown
6:00 PM 45 °F - 43 °F 89% 30.07 in - North 1.2 mph - -  
6:20 PM 44.6 °F - 42.8 °F 93% 30.04 in 3.1 mi Calm Calm - N/A   Mist
6:50 PM 44.6 °F - 42.8 °F 93% 30.04 in 3.1 mi North 2.3 mph - N/A   Mist
7:00 PM 45 °F - 43 °F 88% 30.08 in 3 mi NNW 2.3 mph - -   Mist
7:20 PM 44.6 °F - 42.8 °F 93% 30.04 in 3.1 mi Calm Calm - N/A   Mist
7:50 PM 42.8 °F - 41.0 °F 93% 30.06 in 3.1 mi NW 2.3 mph - N/A   Mist
8:00 PM 43 °F - 41 °F 92% 30.09 in - NNW 3.5 mph - -  
8:20 PM 42.8 °F - 41.0 °F 93% 30.04 in - NNE 1.2 mph - N/A   Mist
8:50 PM 42.8 °F - 42.8 °F 100% 30.04 in - Variable 1.2 mph - N/A Fog Fog
9:00 PM 43 °F - 41 °F 91% 30.09 in - SSE 1.2 mph - -  
9:20 PM 42.8 °F - 41.0 °F 93% 30.04 in 3.1 mi Variable 1.2 mph - N/A Fog Fog
9:50 PM 42.8 °F - 41.0 °F 93% 30.06 in 3.1 mi Calm Calm - N/A   Mist
10:20 PM 42.8 °F - 41.0 °F 93% 30.06 in 3.1 mi Variable 1.2 mph - N/A   Mist
10:50 PM 41.0 °F - 41.0 °F 100% 30.06 in - Variable 1.2 mph - N/A   Mist
11:00 PM 42 °F - 41 °F 93% 30.11 in - West 2.3 mph - -  
11:20 PM 41.0 °F - 41.0 °F 100% 30.06 in - Calm Calm - N/A   Mist
11:50 PM 41.0 °F - 39.2 °F 93% 30.06 in 2.8 mi Variable 1.2 mph - N/A Fog Fog